Find OneWeb SL0692

NORAD ID: 61600 Int'l Des: 2024-188 Owner: ONEWEBE Country: UK Constellation: oneweb operational
LEOCIRCULARPOLARONEWEB_TYPE

リアルタイム位置

3D地球を読み込み中...

OneWeb SL0692について

説明を読み込み中...

次回通過

Passes for default location (London). Set your location on the main map for personalized predictions.

高度履歴

Loading altitude history...

軌道要素

1 61600U 24188G 26124.49816933 .00000563 00000-0 15531-2 0 9995
2 61600 87.8920 29.7733 0001317 55.2600 304.8652 13.11416609 78746
Epoch: May 4, 2026 • Age: 5 hours

現在のステータス

高度 1228.9 km
速度 7.24 km/s
衛星直下点 -27.58°S, 98.16°E
打ち上げ日 Oct 20, 2024
運用期間 1.5 years
タイプ internet

技術仕様

分類 Payload
質量 148.00 kg
乾燥質量 140.00 kg
総質量 148.00 kg
長さ 1.30 m
直径 1.00 m
スパン 5.00 m
形状 Trapezoid+2 pan
製造者 ONEWUS
バスタイプ ARROW
フェーズステータス In Orbit
所有者/国 ONEWEBE/UK

Most Searched